Torna al catalogo

COSMOS 1191 DEB

AttivoHEO
NORAD 12834·DEBRIS·🇷🇺 Russia

Lanciato Jul 2, 1980 da Plesetsk Cosmodrome

Loading…

Prossimi Passaggi (prossime 24 ore)

TLE

AggiornatoSource: Space-Track

Epoca: Sep 14, 2026, 02:02 UTC

1 12834U 80057F   26257.08525546  .00000150  00000-0  00000-0 0  9991
2 12834  65.7604  94.5543 6625586  21.6529 356.7886  2.00151230243063

Traccia COSMOS 1191 DEB in tempo reale con AllMySat

Download on the App Store